"Pseudo-MPEC" for CQYUH3Z

Created 2025 May 25 15:31:05 UT using Find_Orb

Click here for an explanation of pseudo-MPECs

 
 Astrometry: 
     CQYUH3Z*0C2025 05 19.30674314 45 58.842-06 56 47.11   ~5KFl 20.64GVNEOCPG96
     CQYUH3Z 0C2025 05 19.31234114 46 11.726-06 55 51.82   ~5KFl 20.28GVNEOCPG96
     CQYUH3Z 0C2025 05 19.31793914 46 24.805-06 54 55.33   ~5KFl 20.07GVNEOCPG96
     CQYUH3Z 0C2025 05 19.32354614 46 37.751-06 53 58.38   ~5KFl 21.33GVNEOCPG96

Station data:
(G96) Mt. Lemmon Survey  (N32.442729 W110.788720)  US/Arizona.  Observer A.
   Zooniverse.  + 10K CCD.

Orbital elements:  CQYUH3Z
   Perihelion 2025 Apr 2.44766 +/- 30 TT = 10:44:38 (JD 2460767.94766)
Epoch 2025 May 19.0 TT = JDT 2460814.5   Earth MOID: 0.0038   Ma: 0.0607
M  11.24799889 +/- 19               (J2000 ecliptic)             AutoNEOCP
n   0.24162049 +/- 0.254            Peri.  277.64199 +/- 45
a   2.55297678 +/- 1.79             Node   237.01081 +/- 30
e   0.7479382 +/- 0.244             Incl.   13.21933 +/- 3.8
P   4.07916                H 28.00  G  0.15   U 11.8  SR
q 0.64350772 +/- 0.121    Q 4.46244585 +/- 21.2
From 4 observations 2025 May 19 (24.2 min); mean residual 0".72
Residuals in arcseconds: 
250519 G96  .92+  .56+    250519 G96  .13+  .40-    
250519 G96  1.4-  .65-    250519 G96  .39+  .48+    

Ephemerides (geocentric):
Date (UTC) HH   RA             Dec           delta  r     elong  mag " sig PA
---- --------  ------------   ------------  ------ ------ -----  --- --------
2025 05 25 16  15 45 27.681   -02 48 02.70  .10277 1.1105 160.9 24.2  43d  97
2025 05 25 17  15 45 32.879   -02 47 45.05  .10330 1.1110 160.9 24.2  44d  97
2025 05 25 18  15 45 38.025   -02 47 27.65  .10383 1.1115 160.8 24.2  44d  97
2025 05 25 19  15 45 43.120   -02 47 10.51  .10436 1.1120 160.8 24.2  44d  97
2025 05 25 20  15 45 48.165   -02 46 53.62  .10489 1.1126 160.8 24.3  44d  97
2025 05 25 21  15 45 53.160   -02 46 36.98  .10543 1.1131 160.8 24.3  44d  97
2025 05 25 22  15 45 58.107   -02 46 20.58  .10596 1.1136 160.8 24.3  44d  97
2025 05 25 23  15 46 03.006   -02 46 04.42  .10649 1.1141 160.8 24.3  44d  97
2025 05 26 00  15 46 07.857   -02 45 48.49  .10702 1.1146 160.7 24.3  44d  97
2025 05 26 01  15 46 12.662   -02 45 32.80  .10755 1.1151 160.7 24.3  44d  97
2025 05 26 02  15 46 17.421   -02 45 17.34  .10809 1.1156 160.7 24.3  44d  97
2025 05 26 03  15 46 22.135   -02 45 02.11  .10862 1.1161 160.7 24.3  44d  97
2025 05 26 04  15 46 26.805   -02 44 47.10  .10915 1.1166 160.7 24.4  44d  97
2025 05 26 05  15 46 31.430   -02 44 32.32  .10968 1.1171 160.6 24.4  44d  97
2025 05 26 06  15 46 36.013   -02 44 17.75  .11022 1.1176 160.6 24.4  44d  97
2025 05 26 07  15 46 40.552   -02 44 03.40  .11075 1.1181 160.6 24.4  44d  97
2025 05 26 08  15 46 45.050   -02 43 49.26  .11128 1.1186 160.6 24.4  44d  97
2025 05 26 09  15 46 49.507   -02 43 35.34  .11182 1.1191 160.6 24.4  44d  97
2025 05 26 10  15 46 53.923   -02 43 21.62  .11235 1.1196 160.6 24.4  44d  97
2025 05 26 11  15 46 58.299   -02 43 08.11  .11288 1.1201 160.5 24.4  44d  97
2025 05 26 12  15 47 02.635   -02 42 54.80  .11342 1.1206 160.5 24.4  44d  97
2025 05 26 13  15 47 06.932   -02 42 41.69  .11395 1.1211 160.5 24.5  44d  97
2025 05 26 14  15 47 11.191   -02 42 28.78  .11448 1.1216 160.5 24.5  44d  97
2025 05 26 15  15 47 15.412   -02 42 16.06  .11502 1.1222 160.5 24.5  44d  97
2025 05 26 16  15 47 19.595   -02 42 03.54  .11555 1.1227 160.5 24.5  44d  97
2025 05 26 17  15 47 23.742   -02 41 51.21  .11608 1.1232 160.4 24.5  44d  97
2025 05 26 18  15 47 27.853   -02 41 39.07  .11662 1.1237 160.4 24.5  44d  97
2025 05 26 19  15 47 31.927   -02 41 27.12  .11715 1.1242 160.4 24.5  44d  97
2025 05 26 20  15 47 35.966   -02 41 15.35  .11769 1.1247 160.4 24.5  44d  97
2025 05 26 21  15 47 39.971   -02 41 03.77  .11822 1.1252 160.4 24.5  45d  97
2025 05 26 22  15 47 43.941   -02 40 52.36  .11876 1.1257 160.3 24.6  45d  97
2025 05 26 23  15 47 47.877   -02 40 41.13  .11929 1.1262 160.3 24.6  45d  97
2025 05 27 00  15 47 51.780   -02 40 30.08  .11982 1.1267 160.3 24.6  45d  97
2025 05 27 01  15 47 55.650   -02 40 19.20  .12036 1.1272 160.3 24.6  45d  97
2025 05 27 02  15 47 59.487   -02 40 08.50  .12089 1.1277 160.3 24.6  45d  97
2025 05 27 03  15 48 03.292   -02 39 57.96  .12143 1.1282 160.3 24.6  45d  97
2025 05 27 04  15 48 07.066   -02 39 47.60  .12196 1.1287 160.2 24.6  45d  97
2025 05 27 05  15 48 10.808   -02 39 37.40  .12250 1.1292 160.2 24.6  45d  97
2025 05 27 06  15 48 14.520   -02 39 27.36  .12303 1.1297 160.2 24.6  45d  97
2025 05 27 07  15 48 18.201   -02 39 17.49  .12357 1.1302 160.2 24.7  45d  97
2025 05 27 08  15 48 21.853   -02 39 07.78  .12410 1.1307 160.2 24.7  45d  97
2025 05 27 09  15 48 25.474   -02 38 58.22  .12464 1.1313 160.1 24.7  45d  97
2025 05 27 10  15 48 29.067   -02 38 48.83  .12517 1.1318 160.1 24.7  45d  97
2025 05 27 11  15 48 32.631   -02 38 39.59  .12571 1.1323 160.1 24.7  45d  97
2025 05 27 12  15 48 36.166   -02 38 30.51  .12625 1.1328 160.1 24.7  45d  97
2025 05 27 13  15 48 39.673   -02 38 21.57  .12678 1.1333 160.1 24.7  45d  97
2025 05 27 14  15 48 43.153   -02 38 12.79  .12732 1.1338 160.1 24.7  45d  97
2025 05 27 15  15 48 46.605   -02 38 04.16  .12785 1.1343 160.0 24.7  45d  97